When you browse on this site, cookies collect data to enhance your experience and personalize the content and advertising you see.
Visit our Privacy Policy to learn more. By continuing to use the site, you agree to this use of cookies and data.
  • In Austria
  • List of Countries
  • For 7 days
  • Water Temperature
  • Satellite Maps
  • Weather Map
  • News
  • Weather Widgets
  • user-avatar
    Login

    Hourly Weather Prutz

    Today, 22 May, Wednesday

    Time Temperature Precipitation Wind Pressure Humidity
    00:00 +5°C° 0.4 mm 1 mps 631 mmHg 96%
    01:00 +5°C° 0 mm 1 mps 631 mmHg 96%
    02:00 +5°C° 0.1 mm 1 mps 631 mmHg 96%
    03:00 +4°C° 0.1 mm 1 mps 631 mmHg 97%
    04:00 +4°C° 0.1 mm 1 mps 631 mmHg 97%
    05:00 +5°C° 0.1 mm 1 mps 631 mmHg 96%
    06:00 +5°C° 0.1 mm 1 mps 631 mmHg 96%
    07:00 +7°C° 0 mm 1 mps 632 mmHg 95%
    08:00 +7°C° 0.1 mm 1 mps 632 mmHg 94%
    09:00 +7°C° 0.1 mm 2 mps 632 mmHg 92%
    10:00 +7°C° 0.1 mm 2 mps 632 mmHg 91%
    11:00 +8°C° 0.2 mm 2 mps 633 mmHg 89%
    12:00 +8°C° 0.2 mm 2 mps 633 mmHg 86%
    13:00 +9°C° 0.2 mm 2 mps 633 mmHg 84%
    14:00 +9°C° 0.3 mm 2 mps 633 mmHg 84%
    15:00 +9°C° 0.3 mm 2 mps 633 mmHg 84%
    16:00 +9°C° 0.3 mm 2 mps 633 mmHg 84%
    17:00 +8°C° 0.3 mm 2 mps 633 mmHg 88%
    18:00 +8°C° 0.3 mm 2 mps 633 mmHg 91%
    19:00 +7°C° 0.3 mm 2 mps 632 mmHg 94%
    20:00 +7°C° 0.1 mm 1 mps 633 mmHg 96%
    21:00 +6°C° 0.1 mm 1 mps 633 mmHg 97%
    22:00 +5°C° 0.1 mm 1 mps 633 mmHg 98%
    23:00 +5°C° 0 mm 1 mps 633 mmHg 97%

    Tomorrow, 23 May, Thursday

    Time Temperature Precipitation Wind Pressure Humidity
    00:00 +4°C° 0 mm 1 mps 633 mmHg 96%
    01:00 +3°C° 0 mm 0 mps 633 mmHg 96%
    02:00 +3°C° 0 mm 0 mps 633 mmHg 95%
    03:00 +2°C° 0 mm 0 mps 633 mmHg 94%
    04:00 +2°C° 0 mm 0 mps 633 mmHg 94%
    05:00 +4°C° 0 mm 1 mps 633 mmHg 92%
    06:00 +6°C° 0 mm 1 mps 633 mmHg 90%
    07:00 +7°C° 0 mm 1 mps 634 mmHg 88%
    08:00 +8°C° 0 mm 1 mps 634 mmHg 84%
    09:00 +10°C° 0 mm 1 mps 634 mmHg 79%
    10:00 +11°C° 0 mm 1 mps 635 mmHg 75%
    11:00 +12°C° 0 mm 1 mps 635 mmHg 71%
    12:00 +13°C° 0 mm 1 mps 635 mmHg 66%
    13:00 +14°C° 0 mm 2 mps 635 mmHg 62%
    14:00 +14°C° 0 mm 2 mps 635 mmHg 62%
    15:00 +14°C° 0 mm 2 mps 634 mmHg 62%
    16:00 +14°C° 0 mm 2 mps 634 mmHg 61%
    17:00 +12°C° 0 mm 2 mps 634 mmHg 68%
    18:00 +10°C° 0 mm 2 mps 633 mmHg 74%
    19:00 +9°C° 0 mm 2 mps 633 mmHg 81%
    20:00 +8°C° 0 mm 1 mps 632 mmHg 85%
    21:00 +6°C° 0 mm 1 mps 632 mmHg 89%
    22:00 +4°C° 0 mm 1 mps 632 mmHg 93%
    23:00 +4°C° 0 mm 1 mps 632 mmHg 93%

    Day after tomorrow, 24 May, Friday

    Time Temperature Precipitation Wind Pressure Humidity
    00:00 +4°C° 0 mm 1 mps 631 mmHg 92%
    01:00 +4°C° 0 mm 1 mps 631 mmHg 91%
    02:00 +4°C° 0 mm 1 mps 631 mmHg 91%
    03:00 +4°C° 0 mm 1 mps 631 mmHg 90%
    04:00 +4°C° 0 mm 1 mps 631 mmHg 89%
    05:00 +6°C° 0 mm 1 mps 632 mmHg 83%
    06:00 +7°C° 0 mm 0 mps 632 mmHg 77%
    07:00 +9°C° 0 mm 0 mps 633 mmHg 71%
    08:00 +11°C° 0 mm 0 mps 633 mmHg 65%
    09:00 +13°C° 0 mm 1 mps 633 mmHg 60%
    10:00 +14°C° 0 mm 1 mps 634 mmHg 54%
    11:00 +15°C° 0 mm 1 mps 633 mmHg 54%
    12:00 +15°C° 0 mm 2 mps 633 mmHg 53%
    13:00 +16°C° 0 mm 2 mps 633 mmHg 53%
    14:00 +15°C° 0.1 mm 2 mps 633 mmHg 56%
    15:00 +15°C° 0.1 mm 2 mps 632 mmHg 59%
    16:00 +15°C° 0.1 mm 2 mps 632 mmHg 62%
    17:00 +13°C° 0.2 mm 2 mps 632 mmHg 69%
    18:00 +12°C° 0.2 mm 2 mps 631 mmHg 76%
    19:00 +11°C° 0.2 mm 1 mps 631 mmHg 82%
    20:00 +10°C° 0.2 mm 1 mps 631 mmHg 86%
    21:00 +9°C° 0.2 mm 1 mps 631 mmHg 89%
    22:00 +6°C° 0.2 mm 0 mps 631 mmHg 93%
    23:00 +6°C° 0.1 mm 0 mps 630 mmHg 93%

    25 May, Saturday

    Time Temperature Precipitation Wind Pressure Humidity
    00:00 +7°C° 0.1 mm 1 mps 630 mmHg 93%
    01:00 +7°C° 0.1 mm 1 mps 630 mmHg 93%
    02:00 +7°C° 0.1 mm 1 mps 630 mmHg 92%
    03:00 +7°C° 0.1 mm 1 mps 630 mmHg 92%
    04:00 +7°C° 0.1 mm 1 mps 630 mmHg 91%
    05:00 +8°C° 0.1 mm 1 mps 631 mmHg 87%
    06:00 +8°C° 0.1 mm 0 mps 631 mmHg 82%
    07:00 +10°C° 0.1 mm 0 mps 632 mmHg 78%
    08:00 +11°C° 0.3 mm 0 mps 632 mmHg 76%
    09:00 +12°C° 0.3 mm 0 mps 632 mmHg 73%
    10:00 +13°C° 0.3 mm 1 mps 633 mmHg 70%
    11:00 +13°C° 0.8 mm 1 mps 632 mmHg 74%
    12:00 +13°C° 0.8 mm 1 mps 632 mmHg 77%
    13:00 +13°C° 0.8 mm 1 mps 632 mmHg 80%
    14:00 +13°C° 1.7 mm 1 mps 632 mmHg 84%
    15:00 +12°C° 1.7 mm 1 mps 631 mmHg 88%
    16:00 +11°C° 1.7 mm 1 mps 631 mmHg 92%
    17:00 +11°C° 3.4 mm 1 mps 631 mmHg 94%
    18:00 +10°C° 3.4 mm 1 mps 631 mmHg 96%
    19:00 +9°C° 3.4 mm 1 mps 631 mmHg 97%
    20:00 +9°C° 2.4 mm 1 mps 631 mmHg 97%
    21:00 +8°C° 2.4 mm 1 mps 632 mmHg 97%
    22:00 +7°C° 2.4 mm 0 mps 632 mmHg 96%
    23:00 +7°C° 0.6 mm 0 mps 632 mmHg 95%

    26 May, Sunday

    Time Temperature Precipitation Wind Pressure Humidity
    00:00 +6°C° 0.6 mm 0 mps 632 mmHg 94%
    01:00 +6°C° 0.6 mm 0 mps 631 mmHg 93%
    02:00 +6°C° 0.1 mm 0 mps 631 mmHg 93%
    03:00 +5°C° 0.1 mm 0 mps 631 mmHg 93%
    04:00 +6°C° 0.1 mm 1 mps 631 mmHg 92%
    05:00 +7°C° 0 mm 1 mps 631 mmHg 90%
    06:00 +9°C° 0 mm 1 mps 632 mmHg 88%
    07:00 +10°C° 0 mm 1 mps 632 mmHg 85%
    08:00 +11°C° 0 mm 1 mps 633 mmHg 81%
    09:00 +12°C° 0 mm 1 mps 633 mmHg 76%
    10:00 +13°C° 0 mm 2 mps 634 mmHg 72%
    11:00 +14°C° 0.1 mm 2 mps 634 mmHg 71%
    12:00 +14°C° 0.1 mm 2 mps 634 mmHg 70%
    13:00 +15°C° 0.1 mm 2 mps 633 mmHg 69%
    14:00 +14°C° 0.4 mm 2 mps 633 mmHg 72%
    15:00 +13°C° 0.4 mm 3 mps 633 mmHg 74%
    16:00 +13°C° 0.4 mm 3 mps 633 mmHg 77%
    17:00 +12°C° 0.3 mm 3 mps 633 mmHg 82%
    18:00 +12°C° 0.3 mm 2 mps 632 mmHg 86%
    19:00 +10°C° 0.3 mm 2 mps 632 mmHg 91%
    20:00 +9°C° 0.1 mm 2 mps 632 mmHg 93%
    21:00 +9°C° 0.1 mm 1 mps 632 mmHg 95%
    22:00 +8°C° 0.1 mm 1 mps 632 mmHg 98%
    23:00 +8°C° 0 mm 1 mps 631 mmHg 97%

    27 May, Monday

    Time Temperature Precipitation Wind Pressure Humidity
    00:00 +7°C° 0 mm 1 mps 631 mmHg 97%
    01:00 +6°C° 0 mm 0 mps 631 mmHg 96%
    02:00 +6°C° 0 mm 0 mps 630 mmHg 96%
    03:00 +6°C° 0 mm 0 mps 630 mmHg 95%
    04:00 +5°C° 0 mm 0 mps 630 mmHg 94%
    05:00 +7°C° 0 mm 0 mps 630 mmHg 90%
    06:00 +8°C° 0 mm 0 mps 630 mmHg 85%
    07:00 +10°C° 0 mm 0 mps 631 mmHg 80%
    08:00 +12°C° 0.2 mm 1 mps 631 mmHg 77%
    09:00 +13°C° 0.2 mm 1 mps 631 mmHg 75%
    10:00 +13°C° 0.2 mm 1 mps 631 mmHg 72%
    11:00 +13°C° 0.9 mm 2 mps 631 mmHg 77%
    12:00 +12°C° 0.9 mm 2 mps 630 mmHg 82%
    13:00 +12°C° 0.9 mm 2 mps 629 mmHg 87%
    14:00 +12°C° 1.2 mm 2 mps 629 mmHg 87%
    15:00 +12°C° 1.2 mm 2 mps 629 mmHg 88%
    16:00 +12°C° 1.2 mm 2 mps 629 mmHg 88%
    17:00 +10°C° 0.4 mm 2 mps 628 mmHg 90%
    18:00 +10°C° 0.4 mm 2 mps 628 mmHg 91%
    19:00 +10°C° 0.4 mm 2 mps 628 mmHg 92%
    20:00 +9°C° 0 mm 2 mps 628 mmHg 94%
    21:00 +9°C° 0 mm 1 mps 627 mmHg 95%
    22:00 +7°C° 0 mm 1 mps 627 mmHg 97%
    23:00 +7°C° 0 mm 1 mps 627 mmHg 96%
    Show more